Change the Weather History Date:

Thursday, June 27, 2013

  Actual Average (KSAT) Record (KSAT)
Temperature  
Mean Temperature 85 °F 84 °F  
Max Temperature 99 °F 93 °F 105 °F (1980)
Min Temperature 71 °F 74 °F 58 °F (1974)
Degree Days  
Heating Degree Days 0 0  
Month to date heating degree days 0  
Since 1 June heating degree days 0  
Since 1 July heating degree days 1496  
Cooling Degree Days 20 19  
Month to date cooling degree days 467  
Year to date cooling degree days 1096  
Since 1 June cooling degree days 467  
Growing Degree Days 35 (Base 50)    
Moisture  
Dew Point 59 °F    
Average Humidity 50    
Maximum Humidity 87    
Minimum Humidity 16    
Precipitation  
Precipitation 0.00 in 0.12 in 1.74 in (1886)
Month to date precipitation 3.79  
Year to date precipitation 15.76  
Snow  
Snow 0.00 in - - ()
Month to date snowfall  
Since 1 June snowfall  
Since 1 July snowfall  
Snow Depth -    
Sea Level Pressure  
Sea Level Pressure 30.02 in    
Wind  
Wind Speed 6 mph (South)    
Max Wind Speed 12 mph    
Max Gust Speed 16 mph    
Visibility 10 miles    
Events      
T = Trace of Precipitation, MM = Missing Value Source: NWS Daily Summary

Daily Weather History Graph

Daily Weather History Graph

Search for Another Location

Airport or City:

Trip Planner

Search our weather history database for the weather conditions in past years. The results will help you decide how hot, cold, wet, or windy it might be!

Date:

Astronomy

Jun. 27, 2013 Rise Set
Actual Time 6:36 AM CDT 8:41 PM CDT
Civil Twilight 6:08 AM CDT 9:08 PM CDT
Nautical Twilight 5:35 AM CDT 9:42 PM CDT
Astronomical Twilight 4:59 AM CDT 10:18 PM CDT
Moon No Moon Rise 11:17 AM CDT (6/27)
Length of Visible Light 15h 00m
Length of Day
14h 05m
Waning Gibbous, 76% of the Moon is Illuminated
Jun 27
Waning Gibbous
Jun 29
Last Quarter
Jul 8
New
Jul 15
First Quarter
Jul 22
Full

Hourly Weather History & Observations

Time (CDT) Temp. Heat Index Dew Point Humidity Pressure Visibility Wind Dir Wind Speed Gust Speed Precip Events Conditions
12:15 AM 81.3 °F 84.0 °F 67.5 °F 63% 30.00 in 10.0 mi South 4.6 mph - N/A   Clear
12:35 AM 80.1 °F 82.7 °F 68.2 °F 67% 30.00 in 10.0 mi South 5.8 mph - N/A   Clear
1:15 AM 78.6 °F - 69.1 °F 72% 30.00 in 10.0 mi South 5.8 mph - N/A   Clear
1:35 AM 77.9 °F - 69.4 °F 75% 30.00 in 10.0 mi SSE 4.6 mph - N/A   Clear
1:55 AM 77.4 °F - 69.6 °F 77% 30.00 in 10.0 mi South 3.5 mph - N/A   Clear
2:15 AM 76.8 °F - 69.4 °F 78% 30.00 in 10.0 mi South 4.6 mph - N/A   Clear
2:35 AM 76.3 °F - 69.1 °F 78% 30.00 in 10.0 mi South 6.9 mph - N/A   Clear
2:55 AM 75.0 °F - 68.7 °F 81% 30.00 in 10.0 mi SSE 5.8 mph - N/A   Clear
3:15 AM 74.3 °F - 68.5 °F 82% 30.01 in 10.0 mi SSE 5.8 mph - N/A   Clear
3:35 AM 73.9 °F - 68.5 °F 83% 30.01 in 10.0 mi South 8.1 mph - N/A   Clear
3:55 AM 73.4 °F - 68.9 °F 86% 30.01 in 10.0 mi South 5.8 mph - N/A   Clear
4:15 AM 73.2 °F - 68.7 °F 86% 30.02 in 10.0 mi South 6.9 mph - N/A   Clear
4:35 AM 73.0 °F - 68.9 °F 87% 30.02 in 10.0 mi South 8.1 mph - N/A   Scattered Clouds
4:55 AM 73.4 °F - 68.0 °F 83% 30.02 in 10.0 mi SSW 9.2 mph 16.1 mph N/A   Scattered Clouds
5:15 AM 73.2 °F - 67.5 °F 82% 30.02 in 10.0 mi South 8.1 mph - N/A   Clear
5:35 AM 72.9 °F - 67.1 °F 82% 30.03 in 10.0 mi South 9.2 mph - N/A   Clear
5:55 AM 72.5 °F - 67.1 °F 83% 30.03 in 10.0 mi SSW 10.4 mph - N/A   Clear
6:15 AM 72.5 °F - 67.1 °F 83% 30.04 in 10.0 mi SSW 10.4 mph - N/A   Clear
6:35 AM 72.0 °F - 67.1 °F 85% 30.04 in 10.0 mi SSW 9.2 mph - N/A   Clear
6:55 AM 71.8 °F - 67.1 °F 85% 30.04 in 10.0 mi SSW 9.2 mph - N/A   Clear
7:15 AM 72.0 °F - 67.1 °F 85% 30.05 in 10.0 mi South 6.9 mph - N/A   Clear
7:35 AM 72.5 °F - 67.5 °F 84% 30.05 in 10.0 mi Calm Calm - N/A   Clear
7:55 AM 73.2 °F - 67.3 °F 82% 30.05 in 10.0 mi South 8.1 mph - N/A   Clear
8:15 AM 74.5 °F - 66.9 °F 77% 30.06 in 10.0 mi South 5.8 mph - N/A   Clear
8:35 AM 75.6 °F - 66.2 °F 73% 30.06 in 10.0 mi SSW 5.8 mph - N/A   Clear
8:55 AM 77.0 °F - 64.9 °F 66% 30.07 in 10.0 mi SSW 8.1 mph - N/A   Clear
9:15 AM 78.4 °F - 64.6 °F 62% 30.07 in 10.0 mi South 9.2 mph - N/A   Clear
9:35 AM 79.5 °F - 64.0 °F 59% 30.07 in 10.0 mi South 11.5 mph - N/A   Clear
9:55 AM 80.8 °F 82.0 °F 62.6 °F 54% 30.07 in 10.0 mi SSW 8.1 mph - N/A   Clear
10:15 AM 81.7 °F 82.9 °F 63.1 °F 53% 30.07 in 10.0 mi SSW 10.4 mph - N/A   Clear
10:35 AM 83.5 °F 84.3 °F 62.4 °F 49% 30.07 in 10.0 mi SSW 10.4 mph - N/A   Clear
10:55 AM 84.0 °F 84.2 °F 60.8 °F 45% 30.07 in 10.0 mi SSW 11.5 mph - N/A   Clear
11:15 AM 85.8 °F 85.7 °F 60.4 °F 42% 30.07 in 10.0 mi South 10.4 mph - N/A   Clear
11:35 AM 87.1 °F 87.0 °F 60.4 °F 41% 30.07 in 10.0 mi SSW 8.1 mph - N/A   Clear
11:55 AM 87.6 °F 87.2 °F 59.7 °F 39% 30.06 in 10.0 mi SW 5.8 mph - N/A   Clear
12:15 PM 88.9 °F 87.7 °F 57.6 °F 35% 30.06 in 10.0 mi SSW 6.9 mph - N/A   Clear
12:35 PM 89.8 °F 88.4 °F 56.8 °F 33% 30.05 in 10.0 mi South 6.9 mph - N/A   Clear
12:55 PM 91.2 °F 89.4 °F 55.8 °F 30% 30.05 in 10.0 mi South 10.4 mph - N/A   Clear
1:15 PM 92.1 °F 89.7 °F 54.0 °F 27% 30.05 in 10.0 mi SSW 11.5 mph - N/A   Clear
1:35 PM 92.8 °F 91.1 °F 55.9 °F 29% 30.04 in 10.0 mi West 5.8 mph - N/A   Clear
1:55 PM 93.9 °F 92.2 °F 55.8 °F 28% 30.03 in 10.0 mi SE 6.9 mph - N/A   Clear
2:15 PM 95.4 °F 93.2 °F 54.0 °F 25% 30.03 in 10.0 mi SE 6.9 mph - N/A   Clear
2:35 PM 95.5 °F 93.7 °F 55.0 °F 26% 30.02 in 10.0 mi SE 5.8 mph - N/A   Clear
2:55 PM 95.5 °F 93.1 °F 53.1 °F 24% 30.01 in 10.0 mi WNW 6.9 mph - N/A   Clear
3:15 PM 97.3 °F - 50.4 °F 20% 30.01 in 10.0 mi ESE 6.9 mph - N/A   Clear
3:35 PM 97.0 °F - 49.3 °F 20% 30.00 in 10.0 mi SE 4.6 mph - N/A   Clear
3:55 PM 98.2 °F - 48.7 °F 19% 29.99 in 10.0 mi SE 6.9 mph - N/A   Clear
4:15 PM 98.1 °F - 48.2 °F 18% 29.99 in 10.0 mi SSW 6.9 mph - N/A   Clear
4:35 PM 97.9 °F - 50.0 °F 20% 29.99 in 10.0 mi SSW 6.9 mph - N/A   Clear
4:55 PM 97.9 °F - 47.3 °F 18% 29.98 in 10.0 mi SE 9.2 mph 16.1 mph N/A   Clear
5:15 PM 99.0 °F - 45.9 °F 16% 29.99 in 10.0 mi ESE 8.1 mph - N/A   Clear
5:35 PM 98.2 °F - 44.2 °F 16% 29.98 in 10.0 mi SE 10.4 mph - N/A   Clear
5:55 PM 97.2 °F - 45.7 °F 17% 29.97 in 10.0 mi ESE 8.1 mph - N/A   Clear
6:15 PM 97.0 °F - 45.7 °F 17% 29.97 in 10.0 mi ESE 5.8 mph - N/A   Clear
6:35 PM 96.1 °F - 48.0 °F 19% 29.97 in 10.0 mi SE 5.8 mph - N/A   Clear
6:55 PM 95.9 °F - 50.5 °F 21% 29.97 in 10.0 mi South 8.1 mph - N/A   Clear
7:15 PM 95.0 °F - 50.2 °F 22% 29.98 in 10.0 mi SE 8.1 mph - N/A   Clear
7:35 PM 94.1 °F - 51.1 °F 23% 29.98 in 10.0 mi SSE 8.1 mph - N/A   Clear
7:55 PM 93.2 °F - 50.2 °F 23% 29.98 in 10.0 mi SSE 4.6 mph - N/A   Clear
8:15 PM 91.6 °F - 52.0 °F 26% 29.98 in 10.0 mi SSE 5.8 mph - N/A   Clear
8:35 PM 90.0 °F - 52.9 °F 28% 29.98 in 10.0 mi SSE 4.6 mph - N/A   Clear
8:55 PM 88.5 °F 86.3 °F 53.6 °F 30% 29.99 in 10.0 mi SSE 4.6 mph - N/A   Clear
9:15 PM 86.7 °F 84.7 °F 53.8 °F 32% 29.98 in 10.0 mi SSE 3.5 mph - N/A   Clear
9:35 PM 84.6 °F 83.1 °F 54.0 °F 35% 29.98 in 10.0 mi Calm Calm - N/A   Clear
9:55 PM 80.2 °F 80.3 °F 55.0 °F 42% 29.98 in 10.0 mi Calm Calm - N/A   Clear
10:15 PM 80.2 °F 80.3 °F 55.4 °F 42% 29.98 in 10.0 mi Calm Calm - N/A   Clear
10:35 PM 76.6 °F - 55.8 °F 48% 29.98 in 10.0 mi Calm Calm - N/A   Clear
10:55 PM 73.8 °F - 55.9 °F 54% 29.99 in 10.0 mi Calm Calm - N/A   Clear
11:15 PM 74.1 °F - 57.0 °F 55% 30.00 in 10.0 mi NNW 3.5 mph - N/A   Clear
11:35 PM 75.0 °F - 56.5 °F 52% 30.01 in 10.0 mi Calm Calm - N/A   Clear
11:55 PM 73.6 °F - 57.2 °F 56% 30.02 in 10.0 mi Calm Calm - N/A   Clear